Waarnemingen

Advertentie
Mijn weer
Strasbourg, Frankrijk (7190): temperatuur & dauwpunt: 23.03.2017 20:00:00 - 29.03.2017 20:00:00 (CEST)Strasbourg, Frankrijk (7190): temperatuur 5cm: 23.03.2017 20:00:00 - 29.03.2017 20:00:00 (CEST)Strasbourg, Frankrijk (7190): temperatuur -20cm & temperatuur -100cm: 23.03.2017 20:00:00 - 29.03.2017 20:00:00 (CEST)Strasbourg, Frankrijk (7190): windsnelheid & windstoten: 23.03.2017 20:00:00 - 29.03.2017 20:00:00 (CEST)Strasbourg, Frankrijk (7190): windrichting: 23.03.2017 20:00:00 - 29.03.2017 20:00:00 (CEST)Strasbourg, Frankrijk (7190): luchtdruk: 23.03.2017 20:00:00 - 29.03.2017 20:00:00 (CEST)Strasbourg, Frankrijk (7190): zicht: 23.03.2017 20:00:00 - 29.03.2017 20:00:00 (CEST)Strasbourg, Frankrijk (7190): Zonneschijnduur: 23.03.2017 20:00:00 - 29.03.2017 20:00:00 (CEST)Strasbourg, Frankrijk (7190): neerslag: 23.03.2017 20:00:00 - 29.03.2017 20:00:00 (CEST)
Datum & Tijd tt [°C] td [°C] tt 5cm [°C] tt -20cm [°C] tt -100cm [°C] ff [km/u] ff [kn] fx [km/u] fx [kn] dd ppp [hPa] vv [km] sd [min] rr [mm]
29.03.2017 20:00:00 17,0 5,3 15,0 15,1 9,8 9 5 19 10 N 1025,8 60 10 0,0
29.03.2017 19:00:00 19,1 6,2 18,3 14,8 9,8 13 7 22 12 N 1025,3 45 60 0,0
29.03.2017 18:00:00 20,3 5,9 23,4 14,4 9,8 16 8 27 14 NNW 1025,0 56 60 0,0
29.03.2017 17:00:00 20,9 6,0 25,1 13,9 9,8 15 8 24 13 NNW 1025,3 60 60 0,0
29.03.2017 16:00:00 21,3 4,8 25,7 13,3 9,8 13 7 24 13 WZW 1025,7 20 60 0,0
29.03.2017 15:00:00 20,6 3,3 25,2 12,7 9,8 9 5 27 14 W 1026,4 56 60 0,0
29.03.2017 14:00:00 20,1 4,6 22,1 12,2 9,8 13 7 26 14 NW 1027,0 18 58 0,0
29.03.2017 13:00:00 19,5 5,9 23,2 11,8 9,8 11 6 24 13 ZZW 1027,7 54 60 0,0
29.03.2017 12:00:00 18,0 7,7 22,5 11,6 9,8 6 4 18 10 ZZW 1028,4 44 60 0,0
29.03.2017 11:00:00 16,2 8,4 19,0 11,5 9,8 7 4 14 8 Z 1028,7 20 60 0,0
29.03.2017 10:00:00 13,3 7,7 14,9 11,6 9,8 8 4 13 7 ZZW 1028,4 30 60 0,0
29.03.2017 09:00:00 11,0 7,1 9,5 11,8 9,7 5 3 8 5 ZZW 1028,5 28 60 0,0
29.03.2017 08:00:00 6,8 5,4 3,0 12,0 9,7 4 2 8 4 Z 1028,5 20 16 0,0
29.03.2017 07:00:00 6,1 4,4 3,6 12,3 9,7 4 2 7 4 WZW 1028,3 17 0 0,0
29.03.2017 06:00:00 7,0 5,0 3,5 12,6 9,7 3 2 6 3 ZZO 1027,8 20 0 0,0
29.03.2017 05:00:00 6,7 3,7 3,8 12,8 9,7 0 0 4 2 N 1027,8 18 0 0,0
29.03.2017 04:00:00 8,9 6,0 5,6 13,0 9,7 2 1 6 4 NNW 1027,4 24 0 0,0
29.03.2017 03:00:00 10,1 6,4 8,0 13,2 9,7 4 2 6 4 OZO 1027,4 29 0 0,0
29.03.2017 02:00:00 10,5 6,3 7,3 13,4 9,7 3 2 6 3 W 1027,1 35 0 0,0
29.03.2017 01:00:00 11,3 6,2 8,3 13,6 9,7 3 1 11 6 ZZO 1026,9 39 0 0,0
29.03.2017 00:00:00 13,5 6,1 11,6 13,8 9,7 7 4 20 11 WNW 1026,1 43 0 0,0
28.03.2017 23:00:00 14,1 6,4 9,9 14,0 9,7 10 5 18 10 NW 1025,4 50 0 0,0
28.03.2017 22:00:00 14,1 6,2 10,0 14,2 9,7 8 4 13 7 W 1024,8 53 0 0,0
28.03.2017 21:00:00 16,1 6,5 12,7 14,2 9,7 8 5 12 7 W 1024,0 59 0 0,0
28.03.2017 20:00:00 18,0 6,2 16,0 14,1 9,7 9 5 18 10 W 1023,2 60 14 0,0
28.03.2017 19:00:00 20,6 5,4 19,3 13,8 9,7 14 8 22 12 W 1022,5 43 60 0,0
28.03.2017 18:00:00 22,0 5,4 20,9 13,4 9,7 10 5 26 14 N 1021,9 39 39 0,0
28.03.2017 17:00:00 21,6 5,1 21,3 12,8 9,6 9 5 29 16 ZW 1022,0 56 44 0,0
28.03.2017 16:00:00 22,3 6,1 27,0 12,2 9,7 11 6 25 14 Z 1022,1 40 60 0,0
28.03.2017 15:00:00 21,5 5,8 26,0 11,5 9,6 11 6 26 14 Z 1022,5 49 60 0,0
28.03.2017 14:00:00 20,7 5,1 24,9 11,0 9,6 14 8 25 13 Z 1023,0 36 60 0,0
28.03.2017 13:00:00 19,6 6,0 23,2 10,6 9,6 14 8 23 13 Z 1023,7 28 60 0,0
28.03.2017 12:00:00 17,3 5,9 20,2 10,4 9,6 11 6 19 10 Z 1024,1 32 60 0,0
28.03.2017 11:00:00 15,2 6,7 16,3 10,3 9,6 16 9 22 12 ZZW 1024,3 18 60 0,0
28.03.2017 10:00:00 10,9 5,8 12,0 10,5 9,6 10 6 18 10 Z 1024,3 19 60 0,0
28.03.2017 09:00:00 8,0 4,6 7,0 10,6 9,6 8 5 13 7 ZZW 1024,3 16 60 0,0
28.03.2017 08:00:00 4,5 2,4 0,8 10,9 9,6 5 3 7 4 ZZW 1024,4 16 22 0,0
28.03.2017 07:00:00 3,9 2,6 0,3 11,2 9,6 3 2 7 4 ZZO 1024,2 15 0 0,0
28.03.2017 06:00:00 3,7 2,1 0,7 11,4 9,6 5 3 6 4 ZW 1023,8 19 0 0,0
28.03.2017 05:00:00 4,2 2,1 1,7 11,7 9,6 3 2 8 4 ZW 1023,6 20 0 0,0
28.03.2017 04:00:00 5,1 2,3 2,0 12,0 9,6 4 2 8 4 Z 1023,3 21 0 0,0
28.03.2017 03:00:00 5,1 2,4 2,2 12,3 9,6 4 2 8 5 ZZW 1023,4 23 0 0,0
28.03.2017 02:00:00 5,7 2,5 2,8 12,6 9,6 5 3 9 5 WZW 1023,4 24 0 0,0
28.03.2017 01:00:00 6,1 2,7 3,0 12,8 9,5 6 4 9 5 Z 1023,1 23 0 0,0
28.03.2017 00:00:00 7,2 2,7 4,2 13,2 9,5 4 2 6 3 WZW 1022,6 27 0 0,0
27.03.2017 23:00:00 8,6 2,6 5,0 13,4 9,5 3 2 9 5 W 1022,5 29 0 0,0
27.03.2017 22:00:00 9,8 2,9 6,9 13,6 9,5 9 5 13 7 WZW 1022,2 29 0 0,0
27.03.2017 21:00:00 12,2 2,9 9,3 13,6 9,5 4 2 7 4 WNW 1021,5 50 0 0,0
27.03.2017 20:00:00 15,4 2,2 10,1 13,6 9,5 3 2 - - N 1021,0 60 14 0,0
27.03.2017 19:00:00 18,3 0,9 15,6 13,3 9,5 0 0 8 5 N 1020,7 49 60 0,0
27.03.2017 18:00:00 19,0 1,5 22,6 12,7 9,5 2 1 13 7 NNO 1020,7 58 60 0,0
27.03.2017 17:00:00 18,6 0,7 23,5 12,1 9,5 6 4 13 7 O 1021,1 45 60 0,0
27.03.2017 16:00:00 18,5 1,5 23,3 11,5 9,5 6 3 16 8 NO 1021,5 43 60 0,0
27.03.2017 15:00:00 17,0 0,2 22,3 10,8 9,5 9 5 19 11 NNO 1022,1 35 60 0,0
27.03.2017 14:00:00 15,9 1,2 20,8 10,3 9,5 8 4 19 10 NO 1022,8 44 60 0,0
27.03.2017 13:00:00 14,5 0,3 18,9 9,8 9,5 8 4 18 10 N 1023,2 32 60 0,0
27.03.2017 12:00:00 13,4 0,7 17,5 9,7 9,5 5 3 17 9 N 1023,3 48 60 0,0
27.03.2017 11:00:00 11,0 1,2 14,2 9,7 9,5 9 5 16 8 NNO 1023,2 40 60 0,0
27.03.2017 10:00:00 7,9 0,8 11,1 9,8 9,5 10 5 23 12 N 1023,6 28 60 0,0
27.03.2017 09:00:00 6,2 0,1 6,2 10,1 9,5 12 6 17 9 N 1023,7 26 60 0,0
27.03.2017 08:00:00 3,8 0,0 1,2 10,3 9,4 8 4 11 6 N 1023,4 20 29 0,0
27.03.2017 07:00:00 3,4 0,1 0,3 10,6 9,5 7 4 13 7 NNW 1023,0 20 0 0,0
27.03.2017 06:00:00 3,5 0,2 0,3 10,9 9,5 4 2 10 6 NNW 1022,8 19 0 0,0
27.03.2017 05:00:00 3,7 0,7 1,0 11,2 9,4 6 3 8 5 N 1022,7 18 0 0,0
27.03.2017 04:00:00 3,8 1,0 0,8 11,5 9,4 6 3 11 6 NNW 1022,7 20 0 0,0
27.03.2017 03:00:00 4,3 1,5 1,9 11,8 9,4 7 4 10 5 N 1022,7 20 0 0,0
27.03.2017 02:00:00 5,3 1,4 3,3 12,0 9,4 4 2 6 3 NNW 1023,1 24 0 0,0
27.03.2017 01:00:00 7,0 1,7 4,3 12,4 9,5 4 2 9 5 WNW 1023,1 21 0 0,0
27.03.2017 00:00:00 8,1 1,9 4,0 12,6 9,4 6 3 13 7 N 1022,9 30 0 0,0
26.03.2017 23:00:00 9,5 1,9 6,7 12,8 9,4 11 6 17 9 NNO 1022,7 32 0 0,0
26.03.2017 22:00:00 11,0 1,8 8,4 13,0 9,4 12 7 30 16 NO 1022,1 35 0 0,0
26.03.2017 21:00:00 12,2 1,8 10,3 13,1 9,4 16 9 24 13 NNO 1021,7 41 0 0,0
26.03.2017 20:00:00 13,4 1,7 11,0 13,0 9,4 16 8 29 16 NNO 1021,3 40 13 0,0
26.03.2017 19:00:00 15,4 1,5 14,3 12,8 9,4 19 10 27 15 NNO 1020,8 37 60 0,0
26.03.2017 18:00:00 16,9 2,1 19,8 12,3 9,4 15 8 25 13 NNO 1020,8 31 60 0,0
26.03.2017 17:00:00 16,9 1,7 21,0 11,8 9,4 16 9 28 15 NO 1020,7 33 60 0,0
26.03.2017 16:00:00 16,9 2,5 21,0 11,1 9,4 18 10 29 15 NO 1020,7 32 60 0,0
26.03.2017 15:00:00 16,2 1,5 21,4 10,6 9,4 14 8 26 14 N 1021,1 29 60 0,0
26.03.2017 14:00:00 15,3 1,4 20,7 10,1 9,4 14 7 31 17 N 1021,7 37 60 0,0
26.03.2017 13:00:00 14,9 2,7 18,6 9,7 9,3 15 8 26 14 NO 1022,1 25 60 0,0
26.03.2017 12:00:00 13,0 1,3 16,9 9,5 9,4 14 8 29 16 NNO 1022,4 29 60 0,0
26.03.2017 11:00:00 11,3 1,2 15,7 9,5 9,4 12 6 20 11 N 1022,5 27 60 0,0
26.03.2017 10:00:00 9,2 0,9 11,7 9,6 9,3 9 5 19 10 N 1022,6 20 60 0,0
26.03.2017 09:00:00 7,1 0,5 4,7 9,8 9,3 10 5 19 10 NNW 1022,6 25 60 0,0
26.03.2017 08:00:00 4,5 0,3 1,5 10,1 9,4 13 7 16 9 N 1022,3 27 2 0,0
26.03.2017 07:00:00 3,5 -0,2 1,5 10,3 9,3 10 6 13 7 WNW 1021,8 28 0 0,0
26.03.2017 06:00:00 5,7 -0,2 2,7 10,6 9,3 9 5 18 10 N 1021,2 38 0 0,0
26.03.2017 05:00:00 6,1 0,0 3,7 10,8 9,3 11 6 21 12 N 1020,7 35 0 0,0
26.03.2017 04:00:00 6,2 0,3 3,8 11,1 9,3 10 5 22 12 N 1020,3 44 0 0,0
26.03.2017 03:00:00 8,1 0,6 5,9 11,4 9,3 15 8 24 13 NNO 1020,2 44 0 0,0
26.03.2017 02:00:00 8,6 0,6 6,2 11,6 9,3 16 9 22 12 NNO 1020,1 50 0 0,0
26.03.2017 01:00:00 9,3 0,2 7,0 11,8 9,3 15 8 31 17 NNO 1019,9 57 0 0,0
26.03.2017 00:00:00 10,9 0,0 9,1 12,0 9,3 21 11 34 18 NNO 1019,9 59 0 0,0
25.03.2017 23:00:00 11,5 0,0 9,4 12,3 9,3 18 10 32 17 NNO 1019,6 60 0 0,0
25.03.2017 22:00:00 12,1 -0,1 10,1 12,4 9,3 21 11 32 18 NNO 1019,6 60 0 0,0
25.03.2017 21:00:00 13,1 -0,2 11,6 12,6 9,3 23 12 44 24 NNO 1019,1 58 0 0,0
25.03.2017 20:00:00 14,0 0,9 12,7 12,5 9,3 26 14 47 25 NNO 1018,8 46 13 0,0
25.03.2017 19:00:00 15,4 1,9 14,5 12,4 9,3 32 17 54 29 NNO 1018,6 26 60 0,0
25.03.2017 18:00:00 16,6 2,9 17,8 11,9 9,3 30 16 57 31 NNO 1018,7 17 60 0,0
25.03.2017 17:00:00 17,1 3,7 20,2 11,4 9,3 36 19 59 32 NNO 1018,9 11 60 0,0
25.03.2017 16:00:00 17,0 4,3 20,6 10,9 9,3 39 21 55 30 NNO 1019,7 11 60 0,0
25.03.2017 15:00:00 16,8 4,5 20,3 10,3 9,3 34 18 52 28 NNO 1020,5 10 60 0,0
25.03.2017 14:00:00 15,4 5,0 17,9 9,9 9,3 35 19 50 27 NNO 1021,3 9 60 0,0
25.03.2017 13:00:00 14,3 5,4 16,6 9,5 9,2 29 16 42 23 NNO 1022,6 8 60 0,0
25.03.2017 12:00:00 12,0 4,7 14,3 9,3 9,2 26 14 41 22 NNO 1023,9 7 60 0,0
25.03.2017 11:00:00 10,0 4,6 13,5 9,2 9,2 24 13 37 20 NO 1024,5 7 60 0,0
25.03.2017 10:00:00 9,1 4,5 11,1 9,3 9,2 26 14 39 21 NNO 1024,8 6 60 0,0
25.03.2017 09:00:00 7,7 4,3 6,5 9,5 9,2 15 8 25 14 NNO 1025,2 8 56 0,0
25.03.2017 08:00:00 5,8 3,6 4,3 9,7 9,2 14 8 25 13 N 1025,3 6 0 0,0
25.03.2017 07:00:00 5,5 3,5 4,1 10,0 9,2 14 7 22 12 NNO 1025,2 6 0 0,0
25.03.2017 06:00:00 5,7 3,5 4,3 10,1 9,2 14 8 25 13 NNO 1025,2 6 0 0,0
25.03.2017 05:00:00 5,9 3,6 4,7 10,3 9,2 15 8 31 17 NNO 1025,5 7 0 0,0
25.03.2017 04:00:00 6,5 4,0 5,3 10,5 9,2 21 11 31 17 NNO 1026,1 7 0 0,0
25.03.2017 03:00:00 6,9 4,2 5,9 10,7 9,2 17 9 31 17 NNO 1026,4 8 0 0,0
25.03.2017 02:00:00 7,4 4,5 6,1 10,9 9,2 13 7 19 10 NNO 1026,5 8 0 0,0
25.03.2017 01:00:00 7,8 4,7 6,0 11,1 9,2 14 7 26 14 NNO 1026,8 8 0 0,0
25.03.2017 00:00:00 8,7 5,1 7,8 11,3 9,2 20 11 33 18 NO 1026,9 8 0 0,0
24.03.2017 23:00:00 9,0 5,4 7,8 11,5 9,2 19 11 28 15 NNO 1026,8 9 0 0,0
24.03.2017 22:00:00 9,0 5,4 7,9 11,6 9,1 15 8 24 13 NNO 1026,3 10 0 0,0
24.03.2017 21:00:00 9,7 5,7 8,8 11,7 9,2 16 9 35 19 NNO 1025,9 9 0 0,0
24.03.2017 20:00:00 10,5 5,9 9,6 11,8 9,2 21 11 38 20 NNO 1025,3 8 0 0,0
24.03.2017 19:00:00 11,2 6,1 11,0 11,7 9,2 26 14 46 25 NNO 1025,2 9 0 0,0
24.03.2017 18:00:00 11,8 6,5 12,6 11,6 9,2 30 16 45 24 NO 1024,8 9 0 0,0
24.03.2017 17:00:00 12,3 6,8 13,6 11,3 9,1 30 16 44 24 NO 1024,5 10 0 0,0
24.03.2017 16:00:00 12,6 6,8 14,3 11,0 9,1 29 16 46 25 NNO 1024,4 10 0 0,0
24.03.2017 15:00:00 12,6 6,8 15,3 10,8 9,1 29 16 44 24 NNO 1024,3 9 3 0,0
24.03.2017 14:00:00 12,4 7,1 13,8 10,6 9,1 30 16 44 24 NNO 1024,4 12 0 0,0
24.03.2017 13:00:00 11,9 7,0 13,0 10,4 9,1 27 14 38 20 NNO 1024,6 12 0 0,0
24.03.2017 12:00:00 11,4 6,9 13,3 10,2 9,1 24 13 36 20 NNO 1023,7 10 0 0,0
24.03.2017 11:00:00 11,4 6,9 12,9 10,1 9,1 25 14 34 18 NNO 1023,0 10 31 0,0
24.03.2017 10:00:00 9,8 6,7 8,9 10,2 9,1 17 9 29 16 NO 1023,0 9 1 0,0
24.03.2017 09:00:00 8,5 5,9 8,0 10,3 9,1 18 10 25 14 NNO 1021,7 9 0 0,0
24.03.2017 08:00:00 8,1 5,9 7,3 10,5 9,1 9 5 14 7 N 1022,1 10 0 0,0
24.03.2017 07:00:00 7,6 5,7 6,3 10,6 9,1 5 3 13 7 NNW 1021,5 9 0 0,0
24.03.2017 06:00:00 7,1 5,4 6,1 10,8 9,1 8 4 16 9 NNW 1020,9 11 0 0,0
24.03.2017 05:00:00 7,0 5,5 6,1 11,0 9,1 10 5 15 8 NNW 1020,7 11 0 0,0
24.03.2017 04:00:00 7,6 5,6 6,1 11,2 9,1 8 5 16 9 N 1020,7 12 0 0,0
24.03.2017 03:00:00 7,0 5,3 5,4 11,5 9,1 9 5 21 11 NW 1020,3 13 0 0,0
24.03.2017 02:00:00 7,7 5,5 7,1 11,7 9,1 11 6 19 11 NW 1019,1 13 0 0,0
24.03.2017 01:00:00 8,8 5,9 7,8 11,9 9,1 12 6 21 11 NNW 1017,4 13 0 0,0
24.03.2017 00:00:00 9,8 6,3 8,5 12,1 9,1 13 7 24 13 NNO 1016,6 17 0 0,0
23.03.2017 23:00:00 10,6 6,5 9,5 12,3 9,1 16 8 29 16 NNO 1015,8 19 0 0,0
23.03.2017 22:00:00 11,5 6,8 10,7 12,4 9,1 19 10 34 18 NNO 1014,7 19 0 0,0
23.03.2017 21:00:00 12,4 7,1 11,6 12,4 9,1 23 12 42 23 NO 1014,0 20 0 0,0
23.03.2017 20:00:00 - - - - - - - - - - - - - -

tt = temperatuur
td = dauwpunt
tt 5cm = temperatuur 5cm
tt -20cm = temperatuur -20cm
tt -100cm = temperatuur -100cm
ff = windsnelheid
fx = windstoten
dd = windrichting
ppp = luchtdruk
vv = zicht
sd = Zonneschijnduur
rr = neerslag

Weerstations in de omgeving